When you browse on this site, cookies collect data to enhance your experience and personalize the content and advertising you see.
Visit our Privacy Policy to learn more. By continuing to use the site, you agree to this use of cookies and data.
EN

Hourly Weather Bolshaya Sakma

Today, 19 September, Saturday

Time Temperature Precipitation Wind Pressure Humidity
00:00 +16°C° 0.1 mm 8 mps 751 mmHg 43%
01:00 +15°C° 1.3 mm 7 mps 751 mmHg 54%
02:00 +15°C° 1.3 mm 6 mps 750 mmHg 65%
03:00 +15°C° 1.3 mm 5 mps 750 mmHg 77%
04:00 +15°C° 0.6 mm 5 mps 749 mmHg 80%
05:00 +15°C° 0.6 mm 5 mps 749 mmHg 83%
06:00 +15°C° 0.6 mm 5 mps 748 mmHg 86%
07:00 +15°C° 0 mm 5 mps 748 mmHg 83%
08:00 +15°C° 0 mm 4 mps 748 mmHg 80%
09:00 +15°C° 0 mm 4 mps 748 mmHg 78%
10:00 +14°C° 0.4 mm 4 mps 748 mmHg 77%
11:00 +14°C° 0.4 mm 5 mps 747 mmHg 77%
12:00 +14°C° 0.4 mm 5 mps 747 mmHg 76%
13:00 +14°C° 0.1 mm 6 mps 747 mmHg 75%
14:00 +14°C° 0.1 mm 6 mps 747 mmHg 73%
15:00 +12°C° 0.1 mm 7 mps 746 mmHg 71%
16:00 +13°C° 0.1 mm 6 mps 747 mmHg 70%
17:00 +13°C° 0.1 mm 6 mps 747 mmHg 69%
18:00 +13°C° 0.1 mm 5 mps 747 mmHg 67%
19:00 +11°C° 0 mm 6 mps 748 mmHg 70%
20:00 +10°C° 0 mm 7 mps 748 mmHg 72%
21:00 +9°C° 0 mm 8 mps 749 mmHg 75%
22:00 +9°C° 0 mm 8 mps 749 mmHg 75%
23:00 +8°C° 0 mm 7 mps 749 mmHg 74%

Tomorrow, 20 September, Sunday

Time Temperature Precipitation Wind Pressure Humidity
00:00 +8°C° 0 mm 7 mps 750 mmHg 74%
01:00 +6°C° 0 mm 7 mps 750 mmHg 76%
02:00 +7°C° 0 mm 6 mps 750 mmHg 78%
03:00 +7°C° 0 mm 6 mps 751 mmHg 79%
04:00 +5°C° 0 mm 6 mps 751 mmHg 81%
05:00 +6°C° 0 mm 5 mps 751 mmHg 83%
06:00 +6°C° 0 mm 5 mps 751 mmHg 85%
07:00 +7°C° 0 mm 6 mps 751 mmHg 78%
08:00 +9°C° 0 mm 6 mps 751 mmHg 72%
09:00 +10°C° 0 mm 6 mps 751 mmHg 65%
10:00 +11°C° 0.4 mm 7 mps 751 mmHg 62%
11:00 +12°C° 0.4 mm 7 mps 751 mmHg 58%
12:00 +13°C° 0.4 mm 8 mps 751 mmHg 55%
13:00 +12°C° 0.4 mm 8 mps 752 mmHg 56%
14:00 +12°C° 0.4 mm 9 mps 752 mmHg 56%
15:00 +11°C° 0.4 mm 9 mps 752 mmHg 57%
16:00 +10°C° 0.2 mm 8 mps 753 mmHg 60%
17:00 +9°C° 0.2 mm 7 mps 754 mmHg 63%
18:00 +8°C° 0.2 mm 6 mps 755 mmHg 67%
19:00 +7°C° 0 mm 6 mps 755 mmHg 69%
20:00 +7°C° 0 mm 5 mps 756 mmHg 71%
21:00 +6°C° 0 mm 5 mps 756 mmHg 73%
22:00 +6°C° 0 mm 5 mps 757 mmHg 73%
23:00 +6°C° 0 mm 5 mps 757 mmHg 73%

Day after tomorrow, 21 September, Monday

Time Temperature Precipitation Wind Pressure Humidity
00:00 +5°C° 0 mm 5 mps 758 mmHg 73%
01:00 +5°C° 0 mm 5 mps 758 mmHg 76%
02:00 +5°C° 0 mm 5 mps 758 mmHg 79%
03:00 +5°C° 0 mm 5 mps 759 mmHg 82%
04:00 +5°C° 0 mm 5 mps 759 mmHg 83%
05:00 +3°C° 0 mm 5 mps 759 mmHg 84%
06:00 +4°C° 0 mm 4 mps 759 mmHg 85%
07:00 +6°C° 0 mm 5 mps 760 mmHg 75%
08:00 +7°C° 0 mm 5 mps 760 mmHg 66%
09:00 +9°C° 0 mm 6 mps 760 mmHg 56%
10:00 +10°C° 0 mm 6 mps 760 mmHg 52%
11:00 +13°C° 0 mm 6 mps 760 mmHg 48%
12:00 +14°C° 0 mm 7 mps 760 mmHg 44%
13:00 +14°C° 0 mm 7 mps 759 mmHg 44%
14:00 +14°C° 0 mm 7 mps 759 mmHg 44%
15:00 +15°C° 0 mm 7 mps 759 mmHg 43%
16:00 +14°C° 0 mm 6 mps 758 mmHg 47%
17:00 +13°C° 0 mm 5 mps 758 mmHg 51%
18:00 +12°C° 0 mm 4 mps 758 mmHg 55%
19:00 +12°C° 0 mm 5 mps 758 mmHg 58%
20:00 +10°C° 0 mm 5 mps 758 mmHg 60%
21:00 +9°C° 0 mm 5 mps 758 mmHg 62%
22:00 +9°C° 0 mm 5 mps 758 mmHg 64%
23:00 +9°C° 0 mm 5 mps 758 mmHg 65%

22 September, Tuesday

Time Temperature Precipitation Wind Pressure Humidity
00:00 +9°C° 0 mm 5 mps 758 mmHg 67%
01:00 +9°C° 0 mm 5 mps 758 mmHg 68%
02:00 +9°C° 0 mm 5 mps 758 mmHg 70%
03:00 +9°C° 0 mm 5 mps 758 mmHg 71%
04:00 +9°C° 0 mm 5 mps 758 mmHg 74%
05:00 +8°C° 0 mm 4 mps 759 mmHg 78%
06:00 +8°C° 0 mm 4 mps 759 mmHg 81%
07:00 +10°C° 0 mm 4 mps 759 mmHg 76%
08:00 +12°C° 0 mm 4 mps 760 mmHg 71%
09:00 +13°C° 0 mm 4 mps 760 mmHg 66%
10:00 +14°C° 0 mm 4 mps 760 mmHg 62%
11:00 +15°C° 0 mm 4 mps 761 mmHg 58%
12:00 +17°C° 0 mm 4 mps 761 mmHg 53%
13:00 +17°C° 0 mm 4 mps 761 mmHg 52%
14:00 +17°C° 0 mm 4 mps 761 mmHg 51%
15:00 +18°C° 0 mm 3 mps 761 mmHg 50%
16:00 +16°C° 0 mm 2 mps 761 mmHg 53%
17:00 +15°C° 0 mm 2 mps 762 mmHg 56%
18:00 +14°C° 0 mm 1 mps 762 mmHg 59%
19:00 +14°C° 0 mm 1 mps 762 mmHg 61%
20:00 +13°C° 0 mm 1 mps 762 mmHg 63%
21:00 +13°C° 0 mm 2 mps 763 mmHg 65%
22:00 +13°C° 0 mm 2 mps 763 mmHg 67%
23:00 +13°C° 0 mm 2 mps 763 mmHg 68%

23 September, Wednesday

Time Temperature Precipitation Wind Pressure Humidity
00:00 +12°C° 0 mm 2 mps 763 mmHg 70%
01:00 +12°C° 0 mm 2 mps 763 mmHg 72%
02:00 +11°C° 0 mm 3 mps 763 mmHg 75%
03:00 +11°C° 0 mm 3 mps 763 mmHg 77%
04:00 +11°C° 0 mm 3 mps 763 mmHg 79%
05:00 +11°C° 0 mm 3 mps 763 mmHg 81%
06:00 +11°C° 0 mm 3 mps 763 mmHg 83%
07:00 +13°C° 0 mm 4 mps 763 mmHg 76%
08:00 +15°C° 0 mm 4 mps 764 mmHg 69%
09:00 +16°C° 0 mm 5 mps 764 mmHg 62%
10:00 +19°C° 0 mm 5 mps 764 mmHg 57%
11:00 +20°C° 0 mm 5 mps 763 mmHg 52%
12:00 +22°C° 0 mm 5 mps 763 mmHg 47%
13:00 +22°C° 0 mm 5 mps 763 mmHg 46%
14:00 +23°C° 0 mm 5 mps 763 mmHg 44%
15:00 +23°C° 0 mm 5 mps 763 mmHg 42%
16:00 +22°C° 0 mm 4 mps 763 mmHg 47%
17:00 +20°C° 0 mm 4 mps 763 mmHg 51%
18:00 +19°C° 0 mm 3 mps 763 mmHg 55%
19:00 +18°C° 0 mm 3 mps 763 mmHg 56%
20:00 +17°C° 0 mm 3 mps 763 mmHg 58%
21:00 +17°C° 0 mm 2 mps 763 mmHg 59%
22:00 +16°C° 0 mm 2 mps 763 mmHg 60%
23:00 +16°C° 0 mm 2 mps 763 mmHg 61%

24 September, Thursday

Time Temperature Precipitation Wind Pressure Humidity
00:00 +15°C° 0 mm 2 mps 763 mmHg 62%
01:00 +15°C° 0 mm 2 mps 764 mmHg 62%
02:00 +15°C° 0 mm 2 mps 764 mmHg 62%
03:00 +15°C° 0 mm 2 mps 764 mmHg 62%
04:00 +14°C° 0 mm 2 mps 764 mmHg 62%
05:00 +14°C° 0 mm 2 mps 764 mmHg 62%
06:00 +14°C° 0 mm 2 mps 764 mmHg 62%
07:00 +16°C° 0 mm 2 mps 764 mmHg 56%
08:00 +18°C° 0 mm 2 mps 765 mmHg 50%
09:00 +20°C° 0 mm 2 mps 765 mmHg 44%
10:00 +21°C° 0 mm 2 mps 765 mmHg 41%
11:00 +23°C° 0 mm 2 mps 764 mmHg 38%
12:00 +25°C° 0 mm 2 mps 764 mmHg 34%
13:00 +25°C° 0 mm 2 mps 764 mmHg 33%
14:00 +25°C° 0 mm 3 mps 764 mmHg 32%
15:00 +26°C° 0 mm 3 mps 764 mmHg 31%
16:00 +24°C° 0 mm 2 mps 764 mmHg 34%
17:00 +21°C° 0 mm 2 mps 764 mmHg 38%
18:00 +20°C° 0 mm 2 mps 764 mmHg 41%
19:00 +19°C° 0 mm 2 mps 764 mmHg 42%
20:00 +18°C° 0 mm 2 mps 764 mmHg 43%
21:00 +18°C° 0 mm 2 mps 764 mmHg 44%
22:00 +17°C° 0 mm 2 mps 764 mmHg 46%
23:00 +17°C° 0 mm 3 mps 764 mmHg 47%
Show more